Regional Weather Roundup
Issued by NWS Kansas City/Pleasant Hill, MO

Home | Current Version | Previous Version | Text Only | Print | Product List | Glossary On
Versions: 1 2 3 4 5 6 7 8 9 10 11 12 13 14 15 16 17 18 19 20 21 22 23 24 25 26 27 28 29 30 31 32 33 34 35 36 37 38 39 40 41 42 43 44 45 46 47 48 49 50
000
ASUS43 KEAX 272304
RWREAX

WEATHER ROUNDUP FOR EASTERN KANSAS AND NORTHWEST MISSOURI
NATIONAL WEATHER SERVICE KANSAS CITY/PLEASANT HILL MO
600 PM CDT WED AUG 27 2014

KSZ040-057-103>105-MOZ028-029-037-043-280000-
...KANSAS CITY METROPOLITAN AREA...

CITY           SKY/WX    TMP DP  RH WIND       PRES   REMARKS
K.C. INTL      PTSUNNY   84  70  62 E12       30.04F
K.C. DOWNTOWN  PTSUNNY   85  71  63 E13       30.02F HX  90
LEES SUMMIT    MOSUNNY   84  72  67 E12       30.04F
OLATHE - IXD   PTSUNNY   84  72  67 SE9       30.04F
OLATHE - OJC   PTSUNNY   83  72  69 E7        30.03F
LAWRENCE       CLOUDY    88  71  57 E9        30.02F HX  94

$$

MOZ001>008-011>017-020>025-030>033-038>040-044>046-053-054-280000-
...NORTHERN AND CENTRAL MISSOURI...

CITY           SKY/WX    TMP DP  RH WIND       PRES   REMARKS
ST. JOSEPH     PTSUNNY   80  72  76 SE6       30.04F
MOSBY          PTCLDY    82  70  65 E6        30.03F
WHITEMAN AFB   MOSUNNY   83  43  24 E6        30.04F
CLINTON        SUNNY     86  75  70 NE9       30.03F HX  95
SEDALIA        MOSUNNY   86  73  65 E8        30.06S HX  93
WARSAW         NOT AVBL
MARSHALL       MOSUNNY   86  75  70 E8        30.05S HX  95
CHILLICOTHE      N/A     82  71  69 NE3       30.06F
MOBERLY        PTSUNNY   84  70  61 E7        30.07F
KIRKSVILLE     PTSUNNY   78  70  76 E3        30.08F

$$

MOZ041-047>049-056>058-063>065-088>090-097-280000-
...EASTERN AND SOUTHERN MISSOURI...

CITY           SKY/WX    TMP DP  RH WIND       PRES   REMARKS
ST. LOUIS INTL TSTM      79  70  74 S7        30.06F
SPIRIT OF STL  CLOUDY    77  67  71 W6        30.06R THUNDER
COLUMBIA       PTSUNNY   80  67  64 NE6       30.05F
JEFFERSON CITY PTSUNNY   83  65  54 CALM      30.02F
MEXICO         CLOUDY    79  72  78 S3        30.07S
ROLLA          CLOUDY    75  67  76 N3        30.05S
LEBANON        PTSUNNY   90  61  37 N7        30.07R
OSAGE BEACH    CLOUDY    82  68  61 CALM      30.04S
SPRINGFIELD    CLOUDY    85  68  56 N7        30.04F
BRANSON        MOSUNNY   99  63  30 SE10      30.03F HX 100
NEVADA         MOSUNNY   91  70  49 E13       30.03F HX  97
JOPLIN         MOSUNNY   90  66  45 VRB7      30.01F HX  92
WEST PLAINS    PTSUNNY   87  66  49 SE13G20   30.06R

$$

IAZ060-094-KSZ022-034>040-054-083-096-NEZ052-066-093-280000-
...KANSAS...SOUTHEAST NEBRASKA AND IOWA...

CITY           SKY/WX    TMP DP  RH WIND       PRES   REMARKS
TOPEKA         CLOUDY    85  72  65 NE8       30.02F HX  91
MANHATTAN      PTSUNNY   88  71  57 E15       29.99F HX  94
EMPORIA        PTSUNNY   91  66  43 E6        29.99F HX  93
CHANUTE        MOSUNNY   95  63  34 VRB3      29.98F HX  96
WICHITA        PTSUNNY   90  63  40 SE15      29.98F HX  91
OMAHA          CLOUDY    74  69  85 E10       30.06S
LINCOLN        CLOUDY    76  69  79 SE10      30.04F
FALLS CITY     CLOUDY    80  73  79 E3        30.04F
LAMONI         CLOUDY    76  69  79 NE6       30.08F
DES MOINES     CLOUDY    76  67  73 E9        30.07F

$$




USA.gov is the U.S. government's official web portal to all federal, state and local government web resources and services.